Theta_e
338 338 339 338 338 337 336 334 332 331 330 329 329 329 330 329 329 330 330 330 330 330 330 330 330 329 331 331 330 330 328 326 325 325 325 324 325 326 327 328 328 327 327 326 324 322 322 322 323 326 327 323 321 326 330 330 332 333 332 331 329 327
338 339 339 339 339 338 338 337 335 333 331 330 330 329 330 330 330 330 330 330 330 330 331 331 331 329 329 330 329 330 327 325 324 324 324 324 325 326 325 327 327 328 328 327 326 325 321 320 323 325 326 325 323 324 324 325 331 332 331 331 330 325
338 339 338 339 339 338 338 338 337 336 334 333 332 330 330 331 331 331 330 331 330 331 331 329 330 329 328 329 330 329 327 324 324 324 323 324 325 325 324 323 324 326 328 327 327 327 324 319 320 323 325 326 325 323 323 326 330 331 329 330 330 328
337 338 338 338 338 338 338 338 338 338 337 336 334 333 333 331 332 332 332 332 331 331 330 329 328 328 328 329 329 328 326 325 324 322 322 323 324 323 322 322 322 323 325 326 326 327 327 323 319 320 323 326 326 328 330 330 331 331 330 329 330 330
337 336 337 336 336 337 338 337 338 337 337 337 336 335 335 334 333 333 333 332 332 332 330 329 329 329 329 329 329 328 326 326 324 322 321 323 325 325 325 323 322 321 321 322 325 328 328 329 325 319 322 327 328 332 333 330 331 332 331 330 330 328
333 332 334 334 334 335 336 337 337 335 336 336 335 335 335 335 335 334 333 333 332 331 330 330 330 331 330 329 329 329 328 328 326 325 324 324 324 327 328 327 325 324 320 320 325 329 329 330 328 322 324 328 329 332 333 331 332 333 331 330 331 328
332 331 333 332 332 335 335 335 334 333 334 334 334 334 334 334 333 332 332 332 331 331 330 329 330 331 330 330 330 329 329 329 329 329 328 326 325 329 331 330 330 329 326 325 327 330 329 329 328 326 327 329 329 331 333 333 334 332 332 331 331 328
333 332 331 330 332 333 332 333 333 333 334 332 331 332 332 333 332 331 331 332 331 331 330 330 330 330 328 329 330 330 330 331 331 330 330 328 327 330 331 331 332 332 330 329 329 329 329 329 329 328 328 329 329 330 332 333 334 332 332 332 331 327
333 332 331 332 333 333 332 333 333 333 334 333 332 333 332 333 332 330 330 331 330 330 331 331 331 330 329 328 329 330 331 332 332 331 330 330 329 330 332 331 331 331 331 330 329 329 329 330 330 328 328 329 329 330 331 332 333 333 332 332 331 328
332 332 331 333 333 332 332 331 331 332 332 332 332 332 333 333 333 332 330 329 328 329 331 332 331 331 330 327 328 330 331 332 332 331 331 331 330 331 331 330 330 331 330 329 328 328 329 329 330 329 328 329 329 329 330 331 333 333 332 332 331 329
332 331 331 331 332 332 329 327 329 331 331 332 331 332 332 332 332 331 330 328 328 329 331 332 330 330 330 329 329 329 331 331 331 331 331 330 331 331 330 330 330 330 330 329 328 328 328 328 330 330 328 329 328 328 329 330 331 332 331 332 330 329
330 329 330 330 330 330 329 328 329 330 331 331 328 329 331 330 330 331 331 330 329 331 332 332 331 329 329 330 329 329 329 329 330 331 331 331 331 331 330 330 330 329 329 329 328 327 327 327 328 329 328 328 328 327 329 329 330 330 330 331 330 329
323 325 331 329 328 328 329 330 330 331 332 330 326 327 328 327 328 330 331 330 329 330 331 332 331 329 328 329 329 329 328 329 330 330 331 332 331 331 330 330 329 328 329 328 327 326 327 327 327 328 328 327 328 327 328 329 329 330 330 330 330 329
315 322 330 328 329 330 328 328 329 330 331 330 330 329 329 328 328 329 330 330 329 329 329 330 331 329 328 329 328 329 329 329 330 330 331 331 331 331 330 330 329 328 328 327 326 326 327 327 327 327 327 327 327 326 327 328 328 329 329 329 329 329
315 322 326 324 327 329 327 328 330 330 328 328 330 329 329 330 330 330 330 330 330 330 330 330 331 330 330 330 329 329 330 330 330 330 330 329 329 329 329 330 329 328 327 325 326 327 326 326 327 326 326 327 327 327 327 327 328 328 328 328 328 329
318 320 320 319 320 320 321 324 326 326 324 325 328 328 327 327 328 329 329 329 329 330 330 330 331 331 331 331 330 330 331 331 331 330 327 325 325 327 329 329 328 327 327 326 326 327 326 326 326 326 327 327 327 328 327 327 327 327 327 328 328 328
318 317 317 317 315 316 319 322 321 321 324 325 326 327 327 326 326 327 328 328 328 328 329 329 329 330 330 330 330 331 332 332 330 328 327 326 327 328 329 329 327 328 328 328 327 328 328 327 327 327 328 327 327 328 328 327 327 327 328 328 328 328
316 316 317 316 315 316 319 323 322 317 320 324 323 324 326 327 326 327 326 327 327 326 326 328 329 329 329 329 330 330 331 330 328 327 327 328 328 328 329 329 328 328 329 328 328 328 328 328 328 328 328 328 328 329 328 328 328 328 328 328 328 328
314 315 317 316 313 314 316 321 322 319 321 324 323 323 325 326 325 325 325 324 325 325 325 327 327 328 328 329 330 330 329 327 326 328 328 327 327 328 328 328 328 328 329 329 328 328 328 328 328 326 326 328 329 330 330 329 329 328 328 328 328 328
313 317 318 315 313 318 321 322 324 325 324 324 323 322 324 325 325 325 325 324 325 325 325 326 327 326 326 326 327 327 326 326 327 327 328 328 328 328 328 327 327 328 328 329 328 327 328 328 328 325 325 326 326 327 328 328 329 329 328 327 328 328
313 316 315 314 319 325 326 324 324 325 323 322 322 322 322 323 324 324 324 324 324 323 321 322 324 325 325 325 325 324 323 324 326 326 326 328 327 328 328 327 326 327 328 328 327 326 326 327 328 326 326 325 323 324 325 326 327 329 329 328 328 328
312 313 312 317 324 327 325 323 323 324 323 321 322 323 323 321 319 316 317 317 314 316 319 318 319 320 321 324 325 324 323 322 323 325 326 326 327 328 328 327 327 327 328 327 327 326 326 326 326 326 325 324 324 325 325 324 324 326 327 327 328 328
311 311 313 319 323 323 322 323 322 322 323 322 323 324 321 319 318 313 311 310 307 314 322 323 321 319 320 323 323 324 323 322 323 325 326 326 327 328 328 327 328 328 328 327 327 327 327 326 325 325 325 325 326 327 326 326 326 326 326 326 327 327
311 311 313 317 318 317 317 319 319 320 322 319 317 319 315 313 317 315 310 308 307 314 321 322 323 322 321 320 321 323 322 322 323 325 326 326 326 327 327 327 328 328 328 328 327 327 327 326 325 326 327 327 328 327 327 328 328 327 326 325 325 324
312 312 312 314 315 312 312 313 313 315 316 311 309 315 316 315 319 318 313 310 311 314 316 318 320 321 321 320 319 320 322 321 322 324 324 324 324 324 325 326 327 328 328 328 328 328 328 327 326 327 327 327 327 326 327 328 327 326 326 324 323 323
312 312 312 313 313 311 310 310 309 309 311 311 314 319 319 319 321 320 316 313 311 310 311 313 313 313 317 319 319 320 321 321 321 322 323 323 323 323 324 325 327 327 328 328 328 328 328 328 327 327 327 327 326 326 326 326 324 323 324 324 324 323
312 313 312 313 313 311 311 310 309 311 314 317 321 322 319 320 320 315 312 311 310 309 312 312 310 312 315 316 318 319 319 320 320 320 321 321 322 322 323 324 325 324 325 326 327 328 329 328 328 327 327 326 326 326 325 325 325 324 323 324 324 324
312 313 312 312 312 311 311 309 311 316 319 320 321 319 316 316 314 309 309 314 315 314 316 315 313 317 317 313 314 317 319 320 319 319 320 320 320 321 321 322 323 323 324 325 325 326 326 326 327 327 327 326 326 326 325 324 324 325 324 323 323 323
315 313 312 312 312 312 311 310 314 318 320 320 319 315 312 311 310 308 310 317 319 314 312 312 311 313 314 310 310 313 316 318 318 318 317 314 312 312 312 312 314 317 320 323 323 323 323 323 324 325 324 324 325 325 324 324 324 325 324 324 324 323
319 315 313 312 311 312 311 310 315 319 320 320 317 313 313 311 309 309 309 312 315 313 310 310 309 310 309 307 307 308 309 312 314 314 314 311 307 304 304 305 305 307 310 313 317 322 322 319 319 321 322 322 323 323 323 323 324 324 323 322 322 323
322 318 314 312 311 312 312 311 314 318 320 320 315 313 314 311 308 310 309 311 314 315 314 310 308 309 308 307 307 306 306 307 308 310 312 312 310 307 306 306 305 305 305 305 308 314 314 310 311 316 319 321 321 321 322 322 322 323 322 321 321 320
325 320 317 314 311 311 312 311 314 317 320 320 316 313 313 310 310 311 311 314 316 315 313 310 308 309 308 308 307 307 306 306 306 307 308 310 311 310 309 307 306 306 306 306 306 306 306 307 309 310 312 315 316 316 317 316 316 317 318 317 316 315
326 322 319 316 312 311 312 312 313 316 320 321 316 315 314 310 311 313 313 316 317 315 314 311 309 309 309 308 308 307 307 306 306 306 306 307 307 309 310 308 306 306 306 306 306 306 305 307 308 308 309 312 312 311 309 308 306 308 309 308 309 313
327 324 320 318 313 311 312 312 312 315 319 320 316 316 317 313 313 316 317 317 318 319 318 314 311 309 309 309 308 308 308 307 307 306 306 306 305 307 311 309 306 306 307 306 306 306 306 305 305 306 308 310 311 309 307 306 306 309 310 306 307 312
328 326 323 320 315 312 312 312 313 314 317 317 314 315 320 318 315 318 320 318 318 320 319 317 314 310 309 309 309 309 308 308 308 307 307 307 306 306 308 308 306 306 307 306 306 306 306 306 305 305 305 308 312 311 306 306 307 309 309 306 305 306
329 329 326 322 316 312 311 311 313 314 316 316 314 313 318 321 318 319 321 319 318 320 320 319 316 312 310 310 309 309 309 309 308 308 308 307 307 306 306 306 306 306 306 306 306 306 306 306 305 305 304 305 309 308 304 304 306 305 305 304 303 303
329 329 328 325 318 313 311 311 312 314 316 318 317 314 315 320 319 318 321 320 318 319 320 320 318 314 311 311 310 310 310 309 309 309 308 308 308 307 307 307 306 306 306 306 306 305 306 306 305 305 304 304 305 305 303 303 304 303 303 303 303 303
Wind_Speed
14 12 12 12 12 12 12 13 13 13 12 12 12 12 12 12 12 11 10 9 8 8 7 5 5 5 6 7 8 8 8 7 7 7 6 6 5 5 5 4 4 3 2 1 2 2 2 3 5 6 8 10 14 17 16 13 12 6 6 6 7 8
12 12 11 10 10 11 12 13 13 13 13 13 12 12 12 12 12 11 10 10 9 9 7 6 6 6 7 8 9 9 9 8 8 7 6 6 6 6 5 5 5 4 3 2 2 2 3 4 5 6 8 10 13 16 14 12 14 6 7 8 6 5
10 11 10 9 9 9 11 13 13 13 14 14 14 14 14 14 13 12 11 10 10 10 8 7 8 7 8 9 10 9 9 9 8 7 7 6 6 6 6 6 7 6 5 4 3 3 4 4 5 7 7 8 10 12 11 12 14 8 9 9 7 7
8 9 9 9 8 8 9 10 11 11 13 14 15 15 15 16 15 13 11 10 10 11 9 8 8 8 9 10 10 10 10 9 7 7 7 7 7 7 7 7 8 8 7 6 5 3 2 2 5 7 7 7 7 7 8 14 13 7 11 9 9 9
8 7 7 7 7 7 7 8 10 10 11 13 12 13 14 16 14 12 12 10 10 12 9 8 8 8 9 9 10 10 10 8 7 7 7 7 8 8 7 8 8 9 9 8 6 3 3 4 7 7 8 7 7 4 7 15 11 7 11 9 9 9
7 6 5 5 5 6 7 8 10 9 9 10 10 11 13 13 9 10 11 10 10 11 9 9 9 9 9 10 11 11 10 8 7 6 7 8 9 8 7 8 8 8 9 7 6 6 8 9 8 8 8 5 5 5 7 12 9 9 10 9 10 8
5 6 6 6 5 5 6 7 9 9 8 9 10 10 11 9 6 7 10 9 9 10 10 9 9 9 10 12 12 11 10 8 7 7 7 7 9 8 7 8 9 8 5 3 4 7 11 12 8 7 7 5 5 6 6 8 9 11 10 9 9 7
7 5 6 6 5 4 5 6 7 8 9 9 9 10 9 8 8 8 9 10 9 9 10 9 9 9 10 11 11 11 11 10 10 10 9 9 10 11 10 9 7 6 5 4 7 10 11 12 12 11 10 8 7 7 7 8 10 10 9 9 8 6
9 7 7 5 4 4 3 4 5 7 9 9 8 9 8 9 10 8 8 9 8 9 10 9 9 9 10 10 9 11 12 12 12 12 11 12 13 12 12 9 5 6 6 6 9 11 10 11 13 13 12 9 8 9 8 10 11 10 9 8 7 7
10 10 9 6 4 3 3 3 2 4 7 7 7 7 8 8 9 7 6 8 9 9 10 10 9 9 11 11 11 11 12 12 12 11 10 11 12 12 11 8 6 6 8 7 9 10 11 12 11 10 11 9 8 9 9 10 9 9 9 8 6 6
13 13 10 8 6 3 2 0 1 3 5 5 5 6 7 7 7 7 7 8 9 9 10 9 9 10 11 12 13 12 12 12 11 10 9 9 9 10 10 8 6 7 8 9 8 9 10 13 11 8 10 10 8 9 9 9 7 8 9 9 7 4
15 15 11 8 7 5 5 2 1 3 4 5 3 4 5 5 6 8 8 7 7 8 9 10 10 10 11 12 13 13 13 12 11 11 9 8 7 8 9 7 6 7 8 10 11 12 9 10 13 9 8 9 8 9 8 7 7 7 9 12 10 6
13 14 12 9 8 7 8 6 5 3 3 3 3 4 4 3 4 5 5 5 5 6 8 11 11 10 11 12 13 13 13 11 10 11 11 10 8 9 9 6 5 5 8 11 11 14 11 9 13 11 8 7 8 9 8 8 10 8 9 12 10 8
13 14 11 11 10 8 8 6 4 3 2 2 2 3 3 2 3 3 5 4 4 6 7 10 11 10 12 12 12 12 11 10 10 10 12 12 12 12 9 7 7 6 7 11 8 9 12 11 12 11 11 11 9 9 10 9 10 9 11 11 9 9
14 12 10 11 10 9 10 9 5 2 2 4 5 3 3 2 2 1 4 5 6 6 7 9 10 9 10 11 11 11 9 10 10 9 10 10 13 15 12 10 10 9 8 9 7 8 9 9 10 9 9 12 10 8 11 11 9 10 11 12 11 9
15 12 11 10 8 7 10 10 7 1 4 7 5 3 5 4 2 2 2 3 5 6 6 8 9 8 8 8 10 9 8 10 9 6 6 8 13 15 14 12 10 11 10 7 6 8 7 6 7 8 9 14 14 11 13 14 12 12 11 12 13 11
15 13 12 9 8 7 8 6 3 4 6 8 7 2 4 6 4 1 2 2 2 2 4 6 7 7 6 7 8 8 8 8 6 6 7 9 13 15 13 13 11 13 14 10 9 9 8 9 8 10 11 14 15 14 14 15 15 14 12 10 12 12
16 14 12 10 9 7 7 6 4 5 7 5 6 7 5 5 5 3 1 2 1 2 3 3 3 3 3 5 6 7 7 5 3 6 9 9 13 17 16 14 14 15 14 13 14 11 9 10 10 10 10 10 10 10 11 13 14 15 14 10 9 11
16 14 12 10 8 7 7 7 7 9 9 6 4 6 5 2 2 1 1 1 0 1 2 2 3 3 1 2 3 4 3 2 1 4 7 9 11 16 18 14 13 14 14 13 13 11 10 8 8 9 9 7 7 6 6 7 8 11 13 11 10 10
15 13 11 9 8 9 8 7 9 9 8 6 3 5 6 4 3 3 4 3 3 1 1 1 3 4 3 3 5 5 3 1 1 1 3 7 9 13 16 15 13 13 13 12 11 11 10 7 7 10 9 7 8 7 5 5 4 7 11 13 13 12
16 13 10 9 9 9 6 6 7 5 5 5 3 3 6 4 4 5 6 4 2 2 2 2 2 1 2 4 6 7 4 1 1 1 2 5 7 9 12 13 13 13 12 12 12 11 10 9 9 10 9 8 9 9 8 8 6 5 7 10 12 13
15 12 10 11 12 10 7 5 7 5 5 5 5 6 5 2 1 2 4 3 1 1 3 3 1 1 3 4 3 4 5 3 1 0 1 3 4 6 8 11 11 11 11 11 12 11 10 10 10 10 10 9 8 9 10 10 9 8 8 8 9 10
14 13 12 12 13 13 11 9 9 8 7 7 8 7 2 3 5 4 3 3 3 5 6 7 7 6 3 4 6 4 5 3 2 1 2 1 1 3 5 8 10 9 10 11 12 10 10 11 10 11 11 9 8 8 7 8 10 11 12 11 9 9
15 14 13 12 12 11 12 11 11 12 10 6 7 6 1 4 6 6 6 6 6 7 6 6 8 7 5 4 7 6 4 3 1 2 3 5 5 2 1 3 6 7 8 9 10 10 11 11 11 11 9 7 8 7 4 4 6 7 8 10 10 10
17 16 14 13 11 9 10 9 8 11 9 6 7 6 5 6 7 6 6 7 7 6 5 6 7 5 5 6 6 9 7 5 4 5 6 7 8 8 7 4 1 4 5 6 8 8 10 11 9 10 9 8 7 6 5 6 5 4 4 6 9 10
17 16 15 13 11 10 10 8 7 10 10 9 10 9 6 7 7 4 4 6 7 6 7 6 5 4 6 7 6 9 9 4 2 3 5 5 7 10 10 7 5 3 2 3 6 7 7 8 7 9 11 9 7 5 5 5 4 4 5 6 7 7
19 17 16 14 12 11 11 10 10 11 11 11 11 9 7 6 6 4 4 6 7 8 9 8 9 8 7 7 6 8 10 7 5 4 4 4 6 8 8 7 9 9 6 4 4 5 5 5 6 8 10 10 8 6 5 4 4 4 5 5 6 6
19 18 17 15 14 13 11 11 12 13 12 11 11 10 8 6 5 4 6 7 7 7 8 8 9 9 7 7 7 8 10 9 8 7 3 2 5 5 3 4 6 7 7 8 6 4 3 4 6 6 6 7 7 4 3 4 5 5 6 7 8 8
20 19 17 16 15 14 12 12 14 15 13 11 11 9 8 6 4 4 5 7 5 3 6 6 7 8 7 8 8 8 9 10 10 8 3 1 3 4 2 3 5 5 5 6 7 8 8 5 4 3 2 2 2 0 2 4 5 5 5 7 9 8
22 20 18 16 16 15 14 14 15 17 15 13 11 10 9 7 5 5 4 5 4 3 5 5 7 8 8 8 9 8 8 9 9 8 6 7 8 8 8 8 7 7 7 6 7 10 8 4 4 6 6 4 2 1 1 1 1 1 2 3 5 6
23 22 19 18 17 16 15 15 16 18 16 14 12 12 10 8 7 6 4 4 4 3 3 4 5 6 7 9 9 9 9 8 8 8 8 9 9 10 11 11 11 10 9 9 9 9 7 4 5 7 8 7 5 5 5 3 2 3 2 1 3 3
25 23 21 19 19 17 16 16 17 19 18 14 14 14 11 8 8 7 6 5 4 2 1 3 5 5 6 7 8 8 9 8 8 8 8 8 8 9 9 9 10 10 10 10 10 9 7 7 8 7 7 7 6 5 5 5 5 5 5 5 5 5
27 26 23 21 20 19 18 16 17 20 19 16 15 15 12 10 9 8 6 6 5 3 1 3 4 5 5 5 6 7 8 8 7 7 7 7 7 8 8 8 8 8 8 8 8 8 8 7 8 8 7 7 5 4 4 3 3 2 3 4 4 3
27 27 25 23 22 21 20 18 17 20 21 18 17 16 13 11 10 8 7 7 6 4 3 1 3 5 4 4 5 5 6 7 6 7 7 7 7 7 7 6 7 8 8 8 8 7 7 7 6 6 6 7 5 3 3 3 3 3 2 0 2 2
26 26 26 25 23 22 21 19 18 20 21 19 17 17 14 11 11 10 9 8 7 6 6 4 2 3 4 4 4 4 4 4 5 5 5 5 5 5 4 4 6 7 7 7 7 7 7 7 7 6 5 6 5 3 3 4 3 3 1 2 0 1
26 25 25 25 24 23 22 21 19 20 21 19 17 17 15 12 11 11 10 9 8 8 7 7 5 2 2 3 4 4 3 3 3 3 4 4 4 4 3 3 4 5 6 6 6 7 8 7 8 8 7 6 4 4 5 5 5 5 4 4 3 2
25 24 23 24 24 24 23 22 20 20 20 18 15 15 15 13 11 11 11 10 9 9 8 8 9 5 2 3 4 4 4 3 2 2 2 2 2 2 2 2 3 3 4 5 5 6 6 7 7 7 7 6 6 6 7 6 6 7 6 6 5 4
Wind_Direction
169 173 179 185 190 199 202 204 207 209 208 204 204 200 198 197 194 189 188 191 192 191 194 202 217 239 229 220 217 208 209 215 220 223 231 232 217 222 231 220 219 220 204 180 158 147 166 196 190 159 142 147 148 148 145 131 121 150 244 256 260 257
163 165 175 181 187 197 200 207 210 214 218 216 215 213 206 205 204 200 198 200 202 201 201 210 223 244 245 231 223 211 210 219 221 220 228 230 220 221 234 238 237 230 217 214 206 192 189 198 203 184 162 154 155 161 161 145 134 156 249 261 278 272
160 160 170 181 187 193 196 204 208 212 218 222 223 220 216 214 212 210 212 214 212 208 208 223 229 235 241 230 219 214 217 223 222 222 227 227 223 223 236 250 254 248 231 220 222 218 201 191 205 208 182 160 166 173 165 146 143 174 234 248 266 275
164 163 170 181 190 194 192 197 200 207 216 222 225 222 223 222 218 216 218 222 218 214 217 226 222 216 224 225 217 219 224 228 228 227 232 231 228 230 238 249 254 253 242 225 217 210 176 194 225 210 190 177 168 166 161 143 136 190 229 237 252 267
160 162 175 182 192 199 191 191 193 207 220 223 227 226 229 228 222 218 214 216 221 223 224 218 212 211 220 223 219 224 226 226 227 228 234 236 239 244 249 251 252 248 248 240 205 163 173 232 257 212 184 188 167 168 176 149 139 209 226 234 248 265
155 152 172 185 203 208 192 196 206 217 224 225 231 228 231 231 222 222 219 220 228 229 229 220 218 222 219 213 212 221 221 216 220 225 231 240 246 253 257 251 249 244 249 245 184 168 200 209 246 227 192 200 181 193 186 151 162 213 213 228 247 260
164 152 161 173 196 212 200 212 226 228 224 230 240 234 236 238 230 237 231 226 230 231 232 226 222 222 214 206 205 211 214 207 207 215 221 235 241 247 260 249 238 233 230 239 198 209 211 194 205 214 193 209 213 209 188 159 186 214 214 223 239 244
160 150 167 175 181 200 213 223 225 219 215 223 234 237 240 233 221 227 223 218 225 228 228 223 224 225 215 208 201 199 202 201 202 211 213 211 219 233 251 248 241 241 215 210 231 232 218 200 201 196 187 201 209 203 199 192 193 210 227 225 224 222
150 153 173 176 175 186 198 215 222 220 215 210 214 221 223 218 218 219 214 217 222 221 221 225 233 232 219 211 206 199 196 198 204 212 214 205 210 227 241 234 227 254 236 206 223 228 219 222 222 201 188 197 204 192 199 214 198 203 229 225 218 215
145 155 163 150 166 205 182 183 219 230 224 215 213 214 212 214 222 224 217 222 228 226 225 226 225 224 225 220 216 211 201 204 212 218 220 207 208 225 236 224 201 232 239 222 224 224 217 223 235 219 192 190 212 197 198 220 201 200 230 234 226 212
146 145 148 147 157 184 172 153 315 253 228 209 209 209 208 209 214 223 224 227 230 229 227 223 216 216 227 227 223 223 215 218 226 227 225 212 214 225 233 223 198 218 227 226 229 230 232 222 223 239 208 187 213 213 206 227 209 197 225 244 259 246
159 142 135 145 149 145 130 101 344 271 230 192 220 233 214 202 192 202 208 217 227 225 222 220 220 218 225 229 227 231 226 225 231 234 229 219 224 225 229 223 200 213 216 223 226 217 232 228 213 231 228 188 203 222 212 225 215 189 215 244 267 278
163 144 133 126 122 128 128 139 177 242 252 193 232 235 226 241 218 213 205 208 230 233 228 223 223 220 225 230 230 233 231 230 233 236 235 224 221 217 224 223 194 209 221 230 236 213 207 220 212 212 228 205 198 220 217 220 223 199 208 239 268 277
147 145 139 125 124 139 132 128 173 236 307 56 75 166 179 229 233 266 253 234 241 241 238 230 226 220 221 227 234 241 239 238 235 230 232 225 220 220 220 217 200 198 226 237 246 228 213 209 203 200 222 226 206 214 217 224 235 216 203 220 255 271
140 146 143 139 145 158 139 123 149 212 2 64 58 55 66 96 143 229 251 241 243 241 237 229 228 222 219 227 237 247 247 240 234 231 241 236 226 222 216 217 211 196 223 239 223 230 230 206 194 197 226 233 215 202 207 218 231 226 220 213 220 247
143 145 140 144 143 145 145 147 167 167 56 89 87 3 1 35 98 143 162 195 222 230 236 233 234 229 225 237 239 244 248 236 220 209 233 240 225 217 213 222 218 194 202 223 219 227 227 199 197 205 225 231 221 207 202 206 211 216 225 222 219 225
145 142 137 140 131 126 135 138 141 99 89 104 109 73 9 28 37 60 158 170 185 215 238 243 250 248 241 250 245 239 245 247 230 205 217 226 214 205 210 222 213 195 194 194 206 216 197 190 209 214 220 226 223 219 210 208 212 211 207 217 230 229
145 142 138 137 130 126 125 115 94 91 102 114 122 132 117 75 70 81 170 194 189 226 250 256 271 275 243 242 243 237 243 265 266 230 228 222 207 202 207 217 209 201 203 197 202 211 201 201 217 226 232 235 229 225 221 220 220 217 211 212 226 229
147 146 138 134 127 112 105 99 80 76 83 82 90 119 125 132 140 101 340 289 255 276 280 283 311 339 323 257 266 270 272 301 269 226 228 222 209 207 211 218 215 208 211 211 210 216 221 220 223 230 237 246 247 231 221 227 224 221 219 215 219 225
152 149 140 134 112 91 82 76 78 85 99 105 89 99 101 101 120 90 56 42 57 26 284 53 34 13 10 342 328 327 342 14 277 250 233 227 218 214 216 223 226 220 217 223 227 224 228 237 230 226 231 251 265 254 239 236 224 227 227 218 218 222
157 155 150 136 107 97 100 92 100 114 114 97 52 95 119 133 157 147 139 138 135 199 247 150 141 163 80 31 360 346 341 337 269 250 222 232 226 220 223 227 232 231 226 228 234 232 231 232 224 224 229 241 257 259 258 249 229 230 237 229 229 231
162 161 156 140 127 130 140 121 113 119 114 101 95 108 109 101 101 148 170 196 233 77 32 31 32 185 126 91 66 12 331 288 204 77 258 259 244 227 228 231 235 237 234 235 237 233 228 229 231 234 231 229 246 261 262 255 245 243 246 244 248 248
164 163 157 150 148 151 157 149 133 136 147 148 146 146 125 76 80 62 72 48 46 87 68 47 39 33 63 103 111 79 347 296 207 87 41 5 273 226 228 229 232 234 231 234 239 238 231 232 238 240 236 234 247 260 261 257 253 252 255 257 259 261
167 166 161 161 162 161 162 162 159 161 167 168 165 176 180 89 86 63 65 66 74 98 98 97 84 56 49 85 117 109 36 344 34 72 55 40 32 33 319 248 237 233 225 222 231 238 233 232 236 235 229 224 235 246 239 233 237 241 257 262 256 254
172 170 168 170 164 158 162 166 173 173 169 148 131 131 106 83 79 68 67 70 73 83 83 102 110 93 77 78 102 108 78 21 38 64 52 37 30 33 30 16 303 225 217 207 213 222 221 221 227 226 216 209 221 226 211 213 226 236 254 258 250 250
175 175 175 175 163 157 161 162 167 163 153 131 114 116 111 94 100 99 71 68 69 72 70 76 88 94 101 96 94 106 102 62 34 97 88 71 57 49 43 40 50 66 108 170 195 200 204 207 210 211 207 206 210 206 204 212 228 250 260 257 247 254
179 180 180 177 167 164 162 155 152 143 135 126 125 142 151 133 139 139 89 73 61 60 62 58 62 67 83 102 117 132 124 96 58 84 103 114 109 85 71 68 60 51 56 84 153 176 178 181 188 200 204 210 218 217 214 224 235 246 261 264 251 258
182 184 184 178 170 169 166 154 145 137 135 141 151 164 165 154 153 127 88 76 62 58 63 56 60 69 68 77 101 126 127 111 86 84 98 187 166 149 138 111 88 68 66 77 90 103 105 130 159 180 194 203 214 222 225 244 262 266 274 281 279 275
185 188 186 181 176 173 170 155 144 142 148 165 174 171 167 166 153 126 104 102 100 68 69 65 59 71 70 66 82 105 122 125 113 104 107 135 139 147 138 125 128 121 111 107 99 89 80 85 131 131 117 148 157 231 270 268 282 295 298 297 302 306
188 192 188 184 180 177 173 159 148 147 158 183 183 166 170 173 159 148 129 124 128 74 64 67 59 63 64 63 72 85 103 120 119 107 86 75 80 88 89 91 102 111 119 131 128 120 115 116 140 127 108 106 117 148 221 291 303 323 344 325 316 325
189 194 190 186 184 182 176 164 153 152 168 191 180 166 180 181 169 170 150 127 123 98 71 59 61 66 62 64 68 74 85 98 106 101 93 86 79 81 86 88 90 92 97 107 117 133 145 132 122 140 149 150 156 163 158 145 162 181 174 240 280 281
189 196 195 188 186 186 181 170 160 158 173 193 180 174 189 185 176 181 162 146 147 148 93 54 61 67 66 70 68 70 77 80 85 91 93 91 85 85 85 87 93 95 97 103 107 117 128 116 110 125 142 146 153 167 177 194 215 222 229 243 261 270
189 197 199 192 188 189 185 177 168 165 176 191 184 182 192 187 183 185 170 164 172 180 114 51 58 66 66 73 75 73 76 76 76 76 76 77 77 80 77 73 82 87 87 91 95 98 100 105 111 115 118 121 132 142 148 175 201 202 232 239 233 234
189 196 202 196 189 190 189 183 177 173 179 189 186 185 194 195 188 183 181 179 180 197 220 324 41 67 62 62 77 80 78 80 82 79 77 71 66 71 70 61 61 65 67 68 72 76 77 81 87 98 109 104 94 88 94 101 108 104 74 245 184 207
190 195 201 198 191 192 191 187 185 181 183 191 191 187 189 197 191 181 191 193 180 199 230 257 312 53 57 46 61 74 76 82 85 83 87 85 78 79 75 59 52 55 58 58 59 62 64 66 65 63 77 87 73 38 49 76 77 84 57 354 39 272
194 194 198 198 194 195 194 190 190 188 188 192 195 190 185 198 203 184 193 208 189 193 224 248 268 318 42 22 27 46 56 74 85 82 86 88 87 89 76 60 55 52 56 55 54 58 61 64 67 66 63 64 60 41 39 43 30 30 25 4 5 0
195 194 194 197 196 196 196 194 193 191 189 189 195 196 184 192 213 196 194 213 203 192 212 241 260 277 314 330 350 0 0 27 64 70 80 88 83 90 84 60 62 51 52 54 51 55 61 63 69 74 73 67 66 58 43 34 29 26 24 14 8 8